Wind_Speed
27 18 27 34 28 22 15 23 22 16 15 20 25 22 21 15 13 24 25 20 24 27 26 23 19 20 19 20 22 22 23 25 27 28 26 22 19 17 14 11 13 13 13 15
15 27 31 23 22 26 25 19 18 17 18 15 16 21 21 22 21 18 19 23 25 26 28 25 21 20 20 20 21 23 23 27 27 25 23 20 17 13 11 12 14 15 16 16
19 14 26 26 25 25 26 27 15 14 17 19 15 19 20 21 25 27 27 24 24 26 30 27 22 21 21 21 23 23 23 25 25 20 23 21 13 11 11 17 16 12 14 17
21 23 15 25 29 25 26 25 18 15 11 13 19 7 23 23 21 24 28 29 28 27 27 28 24 23 20 21 20 19 20 25 23 26 22 16 12 10 10 10 11 12 12 13
20 21 26 23 29 27 25 22 25 19 16 13 16 9 8 17 21 17 22 27 27 28 29 30 27 24 23 20 18 18 19 24 23 21 15 12 11 7 4 6 8 12 14 14
18 11 14 30 21 23 20 19 23 19 16 14 19 16 14 16 18 20 20 27 29 27 27 29 27 25 21 19 18 18 23 22 19 15 14 13 9 7 6 4 5 9 13 14
17 20 20 20 27 25 20 17 9 13 13 17 23 15 10 13 10 13 19 27 29 29 28 24 25 24 21 20 22 22 20 20 15 12 13 12 10 8 5 3 3 4 5 6
8 8 20 20 18 20 27 24 15 24 22 21 8 18 12 9 8 2 4 7 14 20 23 24 24 23 23 19 19 20 20 20 17 19 19 19 15 11 10 6 4 5 8 11
5 9 16 22 22 24 28 25 26 14 23 13 13 5 3 9 10 7 11 15 17 18 22 24 23 22 22 22 22 24 23 21 20 21 20 18 14 11 5 5 4 4 5 3
6 8 10 19 24 26 27 26 22 11 22 19 16 17 9 18 15 12 13 15 15 17 23 25 25 26 26 25 24 23 22 22 21 20 20 18 16 12 7 3 3 3 3 4
5 2 7 19 16 24 23 20 20 18 13 14 14 11 7 18 17 16 13 16 17 21 26 29 30 29 30 27 27 27 26 26 25 22 20 16 12 8 6 6 4 3 5 7
6 4 2 27 8 20 21 22 27 11 16 14 8 7 2 13 15 15 17 19 21 24 28 36 40 36 32 31 29 27 25 23 21 19 16 12 9 7 5 5 7 6 8 11
3 6 5 5 6 6 11 27 28 19 7 11 9 8 8 15 16 18 20 22 26 30 34 35 33 32 30 28 26 24 22 19 18 15 12 11 8 3 1 5 10 13 15 16
9 4 8 10 18 14 15 21 28 19 9 12 5 17 17 15 17 17 22 25 29 31 32 31 30 28 27 26 25 22 21 17 16 14 11 8 5 3 3 5 10 14 17 18
6 4 7 6 21 13 22 26 29 21 17 4 17 18 18 16 17 20 27 29 31 31 30 28 27 26 25 24 22 20 18 16 14 10 7 6 6 7 8 10 13 15 16 16
10 6 6 17 22 15 13 24 23 17 7 7 19 16 18 22 24 24 26 29 29 29 28 26 25 24 23 21 20 18 16 15 12 10 7 9 9 10 11 12 12 12 12 11
5 6 4 4 20 19 3 19 22 10 17 11 17 13 20 17 16 20 25 27 28 26 25 24 22 21 19 18 18 16 15 13 11 7 6 8 10 10 11 11 10 10 10 10
6 7 4 8 16 7 10 19 27 15 11 19 22 18 18 23 29 28 24 26 26 25 25 23 21 20 18 16 17 16 14 11 9 8 8 8 8 9 9 9 9 10 10 10
11 4 2 3 1 21 13 11 26 17 11 23 20 24 28 34 35 22 20 23 25 24 22 22 20 18 17 16 16 14 12 11 10 10 11 11 11 10 9 9 10 10 11 11
5 2 3 9 6 5 14 10 8 19 8 23 28 24 26 27 9 4 18 22 23 22 22 21 19 17 18 17 14 12 12 11 12 12 12 11 10 10 10 10 11 12 11 11
3 1 1 5 5 7 9 2 13 16 10 26 26 28 31 11 13 25 23 22 22 24 23 21 19 18 16 14 12 12 12 11 10 10 9 8 9 9 9 9 9 11 12 13
2 2 2 1 5 6 12 4 3 10 30 34 29 25 35 39 36 28 24 24 24 24 22 20 18 17 15 13 12 12 11 10 8 7 7 8 9 8 9 11 11 12 14 15
2 5 3 6 3 6 3 10 21 27 39 31 37 35 40 40 34 28 26 23 24 23 21 16 16 15 13 13 13 12 11 9 9 8 8 10 11 10 11 13 14 15 15 16
3 8 4 2 8 12 16 22 24 30 34 38 39 41 42 41 33 30 26 23 21 18 17 15 14 13 13 12 13 12 10 9 8 7 9 10 11 12 13 13 17 15 17 17
5 8 5 7 9 18 21 25 32 35 38 39 36 38 41 40 31 29 28 23 20 18 16 14 13 12 12 11 12 12 11 10 9 8 9 9 10 12 13 15 17 16 17 18
11 4 3 3 11 14 13 26 35 40 40 39 44 41 30 32 31 27 25 21 19 17 15 14 13 12 11 10 11 11 11 11 11 9 9 9 10 12 11 14 14 15 14 15
Wind_Direction
195 204 214 211 216 231 258 238 225 217 225 212 225 230 222 209 213 216 227 212 207 208 205 204 204 204 199 199 200 200 205 214 217 217 215 220 217 219 215 211 218 227 232 240
180 221 226 226 224 227 235 242 232 243 206 213 218 232 238 222 224 213 213 218 217 212 208 204 205 197 199 200 199 201 205 212 216 215 212 214 202 205 209 215 226 241 249 245
204 225 218 214 215 217 222 225 225 226 215 221 245 238 226 230 225 224 226 225 214 210 207 205 203 201 204 203 208 203 197 214 210 212 214 215 198 199 211 236 238 252 250 251
234 240 251 209 214 207 217 215 213 211 194 213 208 251 205 219 215 216 219 222 219 208 207 205 202 202 200 207 206 199 195 214 204 213 213 199 195 204 225 237 238 244 235 244
223 224 227 214 213 211 228 207 219 215 238 242 184 235 216 201 211 201 209 212 212 210 205 203 202 205 210 207 197 191 188 209 208 208 203 200 194 207 210 213 223 227 244 238
245 256 243 223 212 214 210 224 203 215 227 223 224 214 212 192 210 205 194 207 207 208 206 206 204 202 199 194 187 183 202 200 203 204 201 192 196 177 179 214 223 235 237 238
229 248 234 273 206 201 198 196 176 198 209 222 207 216 244 181 180 213 194 202 206 208 208 198 194 189 182 175 177 181 192 193 191 184 190 192 176 155 152 141 215 190 211 213
231 214 213 207 215 188 190 187 190 183 192 204 239 215 195 151 119 178 173 199 198 205 197 190 183 173 167 165 165 170 168 167 168 166 170 170 153 166 177 189 173 201 222 240
257 242 179 191 205 183 188 198 211 205 201 207 167 188 120 163 161 146 156 155 148 154 163 157 153 151 153 148 157 156 158 158 161 167 169 162 164 164 194 211 169 199 200 253
296 268 180 178 201 192 186 199 220 229 186 210 176 194 179 182 166 146 135 103 108 103 113 125 132 138 140 140 135 132 132 134 136 142 142 133 125 119 81 33 317 297 274 254
237 243 169 174 197 193 182 202 203 216 205 194 172 167 74 163 148 134 119 116 110 110 117 125 130 133 125 119 120 119 119 123 126 132 131 134 131 122 72 73 36 313 284 273
209 171 206 193 195 213 199 193 206 209 188 218 193 116 353 118 111 118 110 106 104 108 113 119 118 116 118 118 117 114 113 111 114 121 126 124 122 115 86 32 356 305 300 292
240 187 167 193 194 199 215 199 206 206 217 206 189 124 115 102 111 113 112 113 112 108 105 108 109 111 115 114 113 111 108 109 114 118 117 115 111 111 172 296 297 304 289 291
171 248 250 188 191 163 201 216 207 201 230 180 211 137 145 133 126 121 117 116 110 107 106 109 110 112 112 110 106 104 102 102 105 108 108 102 91 55 5 309 280 281 288 291
15 260 250 180 142 158 203 197 197 209 216 250 137 144 150 140 131 126 123 119 114 109 107 109 109 108 106 102 101 101 101 103 101 94 86 63 16 356 323 308 303 302 304 304
338 326 329 128 149 161 188 179 188 197 183 264 136 121 127 126 120 122 125 119 114 112 111 109 106 104 101 101 99 95 91 88 77 58 29 358 345 336 328 326 324 320 314 310
313 331 310 120 154 142 163 200 163 207 190 151 142 126 121 122 121 116 112 116 115 115 113 109 105 99 95 96 97 94 86 77 69 49 23 2 356 346 337 335 332 325 324 326
297 312 321 118 127 165 142 199 156 186 117 90 104 123 110 100 92 99 110 116 114 114 110 106 103 98 92 92 89 84 78 71 53 36 18 359 347 341 342 344 339 336 336 330
218 305 48 132 237 120 127 173 164 165 104 123 124 113 110 103 89 66 106 109 109 109 108 105 103 100 95 88 83 79 73 61 50 39 27 24 26 21 16 4 353 349 340 334
88 278 286 157 101 115 142 88 173 135 143 153 148 142 138 135 117 113 113 115 115 109 105 103 98 93 89 83 81 75 67 61 53 44 38 38 31 21 16 8 2 1 354 338
346 1 319 100 104 92 53 84 183 181 148 136 146 143 147 134 116 132 122 111 108 109 108 106 103 92 81 78 75 72 65 58 55 47 42 33 29 29 14 19 15 19 14 10
300 268 18 326 112 110 354 205 124 111 121 126 125 120 113 119 122 122 118 113 112 110 109 104 99 89 79 71 67 65 65 60 59 55 46 35 31 35 24 25 20 11 11 7
344 13 61 31 39 305 8 81 120 131 128 123 121 125 125 124 124 122 118 115 114 112 105 97 93 86 77 71 67 59 58 61 66 52 41 38 31 30 26 23 20 16 18 24
62 31 58 126 11 57 72 97 113 124 122 124 123 126 127 123 124 121 118 113 108 105 103 100 95 86 78 67 62 57 55 62 63 53 53 38 34 37 37 29 21 23 21 26
354 319 71 90 86 68 82 103 116 119 117 115 121 122 121 123 121 122 118 114 110 105 102 99 94 87 80 67 59 52 46 51 58 57 56 41 40 34 35 25 24 26 14 18
337 336 345 62 70 98 89 115 120 114 113 119 119 112 119 120 119 119 114 112 109 106 101 94 87 84 81 71 61 50 44 45 54 53 54 49 45 49 35 33 23 18 17 16
Height
1422 1424 1406 1393 1406 1408 1396 1396 1401 1402 1408 1418 1415 1411 1415 1417 1422 1423 1426 1426 1429 1432 1438 1443 1449 1453 1458 1462 1466 1469 1472 1475 1478 1481 1486 1490 1494 1497 1500 1505 1507 1509 1510 1512
1412 1403 1395 1408 1405 1410 1408 1405 1400 1403 1406 1414 1408 1410 1408 1409 1414 1418 1421 1423 1425 1430 1433 1438 1443 1448 1453 1457 1460 1466 1469 1470 1474 1478 1483 1487 1493 1494 1499 1502 1503 1505 1506 1507
1392 1385 1392 1398 1403 1405 1405 1402 1401 1405 1405 1408 1409 1407 1402 1402 1406 1411 1415 1418 1420 1423 1427 1433 1438 1443 1448 1453 1456 1460 1465 1466 1471 1475 1479 1484 1489 1492 1494 1495 1498 1500 1502 1503
1385 1384 1382 1393 1394 1399 1399 1399 1400 1407 1405 1408 1405 1394 1386 1391 1394 1400 1406 1410 1413 1417 1423 1428 1434 1439 1444 1449 1454 1459 1462 1463 1468 1471 1476 1482 1487 1491 1493 1493 1495 1497 1498 1500
1379 1379 1382 1383 1385 1390 1391 1396 1402 1405 1403 1397 1399 1405 1371 1379 1386 1388 1396 1402 1407 1411 1417 1422 1429 1435 1441 1447 1453 1457 1460 1460 1464 1470 1476 1480 1485 1489 1491 1493 1492 1493 1495 1496
1379 1380 1375 1372 1379 1384 1393 1396 1398 1404 1399 1404 1390 1394 1374 1372 1375 1379 1387 1393 1400 1406 1411 1418 1425 1432 1439 1445 1450 1455 1454 1459 1463 1469 1474 1478 1482 1486 1490 1491 1492 1491 1491 1493
1379 1375 1374 1376 1376 1381 1392 1398 1417 1418 1409 1388 1378 1384 1373 1362 1369 1372 1377 1386 1393 1400 1406 1414 1421 1428 1435 1442 1445 1449 1452 1457 1462 1467 1471 1476 1481 1485 1489 1490 1492 1492 1492 1492
1374 1368 1363 1375 1365 1371 1379 1386 1372 1385 1382 1372 1373 1380 1370 1370 1379 1384 1385 1387 1393 1397 1403 1411 1418 1425 1432 1437 1441 1446 1451 1456 1460 1464 1468 1474 1478 1483 1484 1486 1488 1489 1490 1491
1358 1355 1349 1353 1364 1369 1375 1377 1352 1355 1360 1362 1368 1368 1371 1371 1380 1385 1386 1388 1392 1397 1404 1411 1419 1425 1429 1435 1440 1446 1450 1454 1458 1463 1468 1472 1475 1479 1482 1484 1487 1487 1488 1489
1367 1361 1346 1353 1361 1366 1363 1364 1370 1356 1368 1372 1359 1365 1357 1374 1377 1385 1388 1400 1404 1406 1408 1413 1418 1424 1430 1435 1441 1447 1452 1455 1459 1465 1468 1472 1474 1478 1482 1485 1486 1487 1487 1489
1378 1373 1352 1354 1361 1353 1356 1365 1361 1351 1346 1353 1359 1358 1354 1362 1373 1384 1400 1405 1408 1410 1412 1416 1421 1428 1433 1439 1445 1450 1455 1458 1461 1467 1470 1472 1473 1474 1479 1482 1484 1486 1488 1488
1370 1367 1362 1347 1355 1354 1343 1355 1357 1353 1355 1338 1334 1370 1368 1370 1383 1398 1405 1409 1412 1414 1417 1421 1426 1432 1439 1444 1450 1454 1459 1462 1465 1467 1471 1473 1474 1474 1476 1476 1478 1484 1485 1487
1367 1362 1364 1366 1365 1368 1362 1344 1344 1344 1339 1345 1344 1375 1381 1394 1400 1406 1408 1413 1416 1419 1421 1426 1432 1437 1443 1448 1453 1456 1461 1465 1467 1469 1472 1473 1475 1477 1473 1474 1472 1479 1484 1484
1367 1362 1350 1329 1330 1350 1365 1349 1344 1345 1352 1342 1340 1373 1385 1398 1402 1408 1412 1416 1419 1423 1427 1433 1439 1444 1449 1452 1455 1459 1463 1468 1470 1473 1474 1475 1475 1475 1470 1472 1477 1481 1481 1482
1370 1356 1333 1314 1336 1348 1352 1344 1345 1351 1349 1350 1352 1367 1386 1397 1402 1409 1415 1420 1424 1428 1433 1439 1444 1449 1452 1454 1458 1463 1466 1469 1471 1474 1474 1473 1474 1471 1473 1475 1476 1477 1477 1477
1368 1356 1343 1331 1340 1349 1349 1338 1346 1350 1354 1348 1353 1381 1392 1401 1408 1414 1420 1423 1428 1433 1439 1445 1450 1453 1457 1460 1462 1465 1469 1471 1472 1473 1472 1474 1476 1474 1475 1475 1475 1474 1474 1474
1375 1367 1346 1346 1342 1360 1374 1346 1357 1358 1355 1359 1371 1386 1396 1405 1412 1418 1424 1430 1436 1442 1446 1450 1454 1457 1460 1463 1464 1468 1469 1471 1473 1475 1476 1476 1475 1475 1475 1474 1474 1473 1472 1469
1377 1370 1354 1356 1354 1358 1352 1344 1356 1358 1360 1372 1384 1393 1401 1409 1417 1425 1434 1438 1442 1448 1451 1455 1458 1461 1464 1468 1469 1469 1471 1474 1475 1477 1476 1476 1475 1475 1474 1473 1472 1471 1469 1467
1377 1370 1359 1358 1348 1346 1352 1351 1355 1363 1374 1380 1384 1401 1409 1414 1421 1435 1441 1444 1447 1452 1456 1459 1462 1465 1468 1469 1469 1472 1474 1475 1476 1476 1476 1474 1474 1474 1473 1472 1471 1468 1466 1464
1372 1372 1366 1338 1348 1358 1357 1353 1355 1362 1387 1383 1389 1401 1406 1413 1426 1445 1448 1450 1453 1455 1458 1461 1465 1467 1469 1471 1473 1474 1475 1477 1477 1477 1476 1475 1475 1474 1473 1472 1470 1467 1465 1463
1372 1363 1353 1341 1349 1360 1359 1359 1359 1370 1377 1388 1401 1403 1408 1413 1426 1443 1448 1452 1455 1456 1460 1464 1467 1470 1473 1474 1476 1476 1477 1478 1478 1478 1478 1477 1475 1475 1473 1471 1468 1466 1464 1460
1374 1358 1355 1345 1351 1368 1370 1360 1361 1376 1383 1391 1404 1411 1417 1425 1437 1446 1452 1456 1459 1462 1466 1469 1471 1473 1476 1478 1479 1478 1479 1478 1478 1479 1479 1478 1477 1474 1472 1471 1468 1466 1463 1460
1375 1371 1369 1378 1385 1380 1373 1373 1378 1384 1383 1399 1404 1416 1422 1430 1442 1450 1456 1461 1464 1467 1470 1474 1477 1479 1481 1480 1480 1480 1480 1480 1480 1481 1480 1478 1477 1474 1472 1469 1467 1465 1463 1459
1374 1373 1379 1383 1392 1384 1379 1379 1386 1394 1398 1405 1413 1420 1427 1435 1447 1454 1461 1466 1470 1474 1477 1480 1483 1483 1484 1484 1483 1483 1482 1481 1481 1480 1479 1479 1477 1475 1472 1469 1467 1465 1463 1461
1392 1384 1390 1395 1396 1394 1395 1396 1398 1403 1408 1415 1425 1430 1435 1440 1453 1459 1465 1471 1476 1479 1481 1484 1486 1486 1487 1487 1486 1486 1485 1482 1481 1480 1480 1479 1477 1476 1474 1471 1469 1467 1464 1462
1402 1393 1390 1398 1399 1400 1404 1406 1408 1409 1416 1426 1430 1434 1447 1454 1458 1466 1471 1476 1479 1483 1485 1487 1488 1490 1491 1490 1490 1489 1487 1483 1482 1481 1480 1480 1478 1478 1477 1474 1472 1469 1467 1465